Content
SEND FEEDBACK

Philippines Flag

OLONGAPO, PHILIPPINES


Home > Asia > Philippines
Elevation: 55 feet     Latitude: 14 48N     Longitude: 120 16E

WEATHER
 
SELECT A DAY
Number of Records: 154,623;   Date Range: 7/31/96 - 3/22/16
 
SHARE

PRINT THIS DATA

[ ← Previous Day ]
WEATHER ALMANAC - JULY 7, 2013
[ Next Day → ]
[ °C ]   °F
We're sorry. There is no daily almanac available for Olongapo, Philippines on July 7, 2013.
WEATHER BY HOUR - JULY 7, 2013
[ °C ]   °F
Local TimeTemperatureDewpointHumidityBarometerVisibilityWind DirectionWind SpeedGust SpeedPrecipitationEventsConditions
5:00 AM79.0 °F75.0 °F83 %29.81 in11.0 miENE (60°)4.5 mphHaze
5:00 AM78.8 °F75.2 °F89 %29.80 in6.2 miENE (60°)4.6 mphPartly Cloudy
6:00 AM78.8 °F75.2 °F89 %29.77 in6.2 miNE (50°)4.6 mphMostly Cloudy
7:00 AM80.6 °F73.4 °F79 %29.83 in6.2 miEast (80°)5.8 mphMostly Cloudy
8:00 AM83.0 °F74.0 °F69 %29.85 in12.0 miNE (50°)4.5 mphHaze
8:00 AM0.0 °F0.0 °F29.83 in6.2 miVariable3.5 mphMostly Cloudy
9:00 AM0.0 °F0.0 °F29.86 in6.2 miENE (60°)8.1 mphMostly Cloudy
10:00 AM0.0 °F0.0 °F29.86 in6.2 miEast (90°)9.2 mphMostly Cloudy
11:00 AM90.0 °F75.0 °F53 %29.86 in12.0 miENE (70°)11.2 mphHaze
11:00 AM89.6 °F75.2 °F62 %29.86 in6.2 miENE (70°)11.5 mphMostly Cloudy
12:00 PM91.4 °F75.2 °F59 %29.83 in6.2 miENE (70°)11.5 mphMostly Cloudy
1:00 PM91.4 °F77.0 °F63 %29.83 in6.2 miEast (80°)15.0 mphMostly Cloudy
2:00 PM93.2 °F75.2 °F56 %29.77 in6.2 miEast (80°)13.8 mphMostly Cloudy
2:00 PM93.0 °F76.0 °F49 %29.79 in11.0 miEast (80°)13.4 mphHaze
3:00 PM91.4 °F75.2 °F59 %29.80 in6.2 miENE (70°)12.7 mphMostly Cloudy
4:00 PM89.6 °F75.2 °F62 %29.80 in6.2 miEast (80°)15.0 mphMostly Cloudy
5:00 PM88.0 °F75.0 °F58 %29.80 in11.0 miEast (90°)8.9 mphHaze
5:00 PM87.8 °F75.2 °F66 %29.80 in6.2 miEast (90°)9.2 mphMostly Cloudy
6:00 PM86.0 °F73.4 °F66 %29.80 in6.2 miEast (90°)11.5 mphMostly Cloudy
7:00 PM84.2 °F73.4 °F70 %29.83 in6.2 miNE (50°)6.9 mphMostly Cloudy
8:00 PM82.0 °F73.0 °F68 %29.85 in9.0 miENE (70°)8.9 mphScattered Clouds
8:00 PM80.6 °F73.4 °F79 %29.83 in6.2 miENE (70°)10.4 mphPartly Cloudy
9:00 PM82.4 °F75.2 °F79 %29.83 in6.2 miENE (60°)9.2 mphPartly Cloudy
10:00 PM82.4 °F75.2 °F79 %29.86 in6.2 miENE (70°)6.9 mphPartly Cloudy
11:00 PM81.0 °F75.0 °F78 %29.88 in9.0 miENE (70°)6.7 mphHaze
11:00 PM80.6 °F75.2 °F84 %29.86 in6.2 miENE (70°)6.9 mphPartly Cloudy
Hourly data recorded from RPLB, located miles away from Olongapo, Philippines




STORIES FROM OUR PARTNERS